Location: Starlight Observatory
(38.4029°N, 85.8936°W)
Time: 00:54:05
(UTC-04:00)

Iridium 62 - Visible Passes

Search period start: 16 September 2014 00:00
Search period end: 26 September 2014 00:00
Orbit: 776 x 779 km, 86.4° (Epoch: 15 September)

Date Brightness Start Highest point End Pass type
(mag) Time Alt. Az. Time Alt. Az. Time Alt. Az.
16 Sep 5.7 20:56:29 10° S 21:01:41 82° E 21:06:55 10° N visible
16 Sep 9.0 22:42:47 10° WNW 22:43:03 10° WNW 22:43:19 10° WNW visible
17 Sep 6.2 20:23:22 10° SSE 20:28:15 43° E 20:33:10 10° NNE visible
17 Sep 8.4 22:05:27 10° WSW 22:09:10 20° WNW 22:12:54 10° NNW visible
18 Sep 9.5 06:58:02 10° ENE 06:58:55 10° ENE 06:59:49 10° E visible
18 Sep 7.4 21:30:39 10° SSW 21:35:24 36° W 21:40:11 10° NNW visible
19 Sep 6.2 20:56:37 10° S 21:01:47 68° W 21:06:59 10° N visible
20 Sep 5.8 20:23:09 10° S 20:28:17 64° E 20:33:26 10° N visible
20 Sep 8.9 22:07:00 10° WSW 22:09:28 13° WNW 22:11:56 10° NW visible
21 Sep 9.0 06:56:09 10° NE 06:59:15 16° ENE 07:02:21 10° ESE visible
21 Sep 8.1 21:31:24 10° SW 21:35:37 25° W 21:39:52 10° NNW visible
22 Sep 7.0 20:56:57 10° SSW 21:01:55 46° W 21:06:56 10° N visible
23 Sep 5.9 20:23:09 10° S 20:28:21 87° W 20:33:35 10° N visible
24 Sep 8.7 06:55:27 10° NNE 06:59:32 23° ENE 07:03:35 10° SE visible
24 Sep 8.7 21:32:31 10° WSW 21:35:53 17° WNW 21:39:16 10° NW visible
25 Sep 9.3 06:23:39 10° NE 06:25:40 12° ENE 06:27:41 10° E visible
25 Sep 7.8 20:57:30 10° SW 21:02:06 31° W 21:06:44 10° NNW visible
